Location: Newark
(39.5667°N, 8.9833°E)
Time: 09:45:51
(UTC+00:00)

Transit 2A - Pass Details

Date: 23 October 2019
Orbit: 601 x 957 km, 66.7° (Epoch: 18 November)

Event Time Altitude Azimuth Distance (km) Brightness Sun altitude
Rises 03:57:45 0° 318° (NW) 2,865 - -20.8°
Reaches altitude 10° 04:00:17 10° 305° (NW) 1,948 - -20.3°
Maximum altitude 04:03:51 25° 250° (WSW) 1,220 - -19.6°
Exits shadow 04:06:24 15° 204° (SSW) 1,638 7.5 -19.1°
Drops below altitude 10° 04:07:27 10° 194° (SSW) 1,969 8.0 -18.9°
Sets 04:10:02 0° 181° (S) 2,903 9.0 -18.4°
